DEFRE EDNY-LFSB

Flight info

Callsign DEFRE
Flight time 0h 28m
Altitude 18000
Route TRA1E TRA L856 HOC/N0459F190 Y51 LEPLA/N0453F180 Z600 LUMEL
Aircraft C750/M-SBDE3FGHRWXY/S

Departure

Time 2026-04-29 17:35
Airport Bodensee Airport Friedrichshafen (EDNY)

Arrival

Time 2026-04-29 18:03
Airport EuroAirport Basel–Mulhouse–Freiburg (LFSB)
Time Latitude Longitude Altitude Speed Heading
2026-04-29 17:13 47.67270 9.52116 1368 ft 0 kts 190°
2026-04-29 17:27 47.67287 9.52120 1367 ft 6 kts 190°
2026-04-29 17:28 47.67317 9.52128 1367 ft 2 kts 190°
2026-04-29 17:28 47.67320 9.52129 1367 ft 0 kts 190°
2026-04-29 17:30 47.67318 9.52127 1367 ft 1 kts 226°
2026-04-29 17:31 47.67309 9.52087 1367 ft 7 kts 252°
2026-04-29 17:31 47.67259 9.51953 1366 ft 19 kts 240°
2026-04-29 17:31 47.67176 9.51741 1361 ft 27 kts 239°
2026-04-29 17:31 47.67078 9.51485 1358 ft 24 kts 240°
2026-04-29 17:32 47.66990 9.51258 1355 ft 26 kts 240°
2026-04-29 17:32 47.66895 9.51012 1352 ft 27 kts 242°
2026-04-29 17:32 47.66798 9.50784 1349 ft 19 kts 207°
2026-04-29 17:32 47.66685 9.50680 1347 ft 19 kts 222°
2026-04-29 17:33 47.66603 9.50480 1343 ft 25 kts 239°
2026-04-29 17:33 47.66513 9.50248 1339 ft 27 kts 241°
2026-04-29 17:33 47.66497 9.49989 1334 ft 26 kts 298°
2026-04-29 17:33 47.66605 9.49825 1330 ft 15 kts 13°
2026-04-29 17:34 47.66630 9.49857 1331 ft 0 kts 60°
2026-04-29 17:34 47.66665 9.49944 1333 ft 29 kts 62°
2026-04-29 17:34 47.66949 9.50677 1347 ft 134 kts 60°
2026-04-29 17:35 47.67835 9.52915 2966 ft 157 kts 58°
2026-04-29 17:35 47.68536 9.54753 4784 ft 161 kts 60°
2026-04-29 17:35 47.69057 9.56092 6155 ft 158 kts 61°
2026-04-29 17:36 47.69584 9.57472 7354 ft 162 kts 60°
2026-04-29 17:36 47.70144 9.58894 8445 ft 170 kts 51°
2026-04-29 17:36 47.71125 9.59725 9514 ft 178 kts
2026-04-29 17:36 47.72257 9.59127 10658 ft 185 kts 319°
2026-04-29 17:37 47.73095 9.57778 11829 ft 185 kts 316°
2026-04-29 17:37 47.74008 9.56330 12444 ft 217 kts 315°
2026-04-29 17:37 47.75149 9.54450 12569 ft 273 kts 314°
2026-04-29 17:37 47.76524 9.52130 12697 ft 322 kts 313°
2026-04-29 17:38 47.78116 9.49437 12793 ft 367 kts 313°
2026-04-29 17:38 47.79726 9.46302 13359 ft 395 kts 300°
2026-04-29 17:38 47.80439 9.42364 14570 ft 405 kts 278°
2026-04-29 17:38 47.80827 9.38250 15833 ft 406 kts 285°
2026-04-29 17:39 47.81270 9.34099 16929 ft 412 kts 279°
2026-04-29 17:39 47.81736 9.29921 17931 ft 419 kts 282°
2026-04-29 17:39 47.82178 9.25522 18148 ft 438 kts 281°
2026-04-29 17:39 47.82675 9.20993 18152 ft 441 kts 281°
2026-04-29 17:40 47.83128 9.16545 18155 ft 435 kts 282°
2026-04-29 17:40 47.83324 9.12062 18105 ft 437 kts 266°
2026-04-29 17:40 47.82468 9.07703 18178 ft 437 kts 251°
2026-04-29 17:40 47.81609 9.03412 18152 ft 431 kts 257°
2026-04-29 17:41 47.80672 8.99174 18156 ft 430 kts 255°
2026-04-29 17:41 47.79825 8.94948 18148 ft 427 kts 255°
2026-04-29 17:41 47.78921 8.90711 18150 ft 425 kts 256°
2026-04-29 17:41 47.78046 8.86550 18140 ft 424 kts 255°
2026-04-29 17:42 47.77172 8.82355 18146 ft 422 kts 256°
2026-04-29 17:42 47.76289 8.78204 18148 ft 421 kts 256°
2026-04-29 17:42 47.75419 8.74083 18147 ft 421 kts 255°
2026-04-29 17:42 47.74539 8.69916 18149 ft 420 kts 255°
2026-04-29 17:43 47.73674 8.65843 18143 ft 420 kts 255°
2026-04-29 17:43 47.72792 8.61699 18149 ft 419 kts 256°
2026-04-29 17:43 47.71903 8.57524 18137 ft 428 kts 255°
2026-04-29 17:43 47.70995 8.53251 18162 ft 441 kts 255°
2026-04-29 17:44 47.70056 8.48870 18160 ft 454 kts 255°
2026-04-29 17:44 47.69086 8.44354 18152 ft 454 kts 255°
2026-04-29 17:44 47.67930 8.40079 18134 ft 443 kts 249°
2026-04-29 17:44 47.66761 8.35994 18140 ft 430 kts 251°
2026-04-29 17:45 47.65589 8.31926 18135 ft 421 kts 249°
2026-04-29 17:45 47.64460 8.27965 18138 ft 412 kts 249°
2026-04-29 17:45 47.63345 8.24084 18136 ft 406 kts 250°
2026-04-29 17:45 47.62244 8.20244 18136 ft 400 kts 250°
2026-04-29 17:46 47.61163 8.16468 18139 ft 395 kts 249°
2026-04-29 17:46 47.60066 8.12661 18150 ft 417 kts 249°
2026-04-29 17:46 47.58913 8.08665 18176 ft 422 kts 249°
2026-04-29 17:46 47.57766 8.04695 17987 ft 418 kts 249°
2026-04-29 17:47 47.56633 8.00769 17673 ft 418 kts 249°
2026-04-29 17:47 47.55495 7.96856 17428 ft 415 kts 250°
2026-04-29 17:47 47.54359 7.92920 17069 ft 413 kts 249°
2026-04-29 17:47 47.53231 7.89053 16738 ft 411 kts 249°
2026-04-29 17:48 47.52097 7.85156 16361 ft 410 kts 249°
2026-04-29 17:48 47.50970 7.81289 16005 ft 409 kts 249°
2026-04-29 17:48 47.49859 7.77490 15713 ft 406 kts 249°
2026-04-29 17:48 47.48741 7.73661 15380 ft 404 kts 249°
2026-04-29 17:49 47.47629 7.69865 15071 ft 402 kts 249°
2026-04-29 17:49 47.46487 7.66120 14749 ft 402 kts 245°
2026-04-29 17:49 47.45029 7.62604 14403 ft 402 kts 240°
2026-04-29 17:49 47.43601 7.59054 14111 ft 399 kts 240°
2026-04-29 17:50 47.42163 7.55604 13841 ft 397 kts 241°
2026-04-29 17:50 47.40771 7.52083 13573 ft 395 kts 245°
2026-04-29 17:50 47.40122 7.48199 13323 ft 399 kts 271°
2026-04-29 17:50 47.40672 7.44145 13356 ft 411 kts 294°
2026-04-29 17:51 47.41993 7.40454 13358 ft 403 kts 301°
2026-04-29 17:51 47.43335 7.36896 13011 ft 400 kts 306°
2026-04-29 17:51 47.45336 7.34077 12583 ft 398 kts 328°
2026-04-29 17:51 47.47676 7.31955 12257 ft 385 kts 328°
2026-04-29 17:52 47.49893 7.29912 10741 ft 380 kts 333°
2026-04-29 17:52 47.51460 7.28988 10614 ft 351 kts 341°
2026-04-29 17:52 47.54264 7.27283 10547 ft 304 kts 338°
2026-04-29 17:52 47.56147 7.26122 10336 ft 285 kts 339°
2026-04-29 17:53 47.57951 7.24995 9757 ft 279 kts 339°
2026-04-29 17:53 47.59732 7.23872 9025 ft 280 kts 339°
2026-04-29 17:53 47.61495 7.22732 8314 ft 281 kts 339°
2026-04-29 17:53 47.63274 7.21553 7640 ft 280 kts 339°
2026-04-29 17:54 47.65038 7.20350 6965 ft 279 kts 339°
2026-04-29 17:54 47.66796 7.19109 6313 ft 278 kts 339°
2026-04-29 17:54 47.68550 7.17851 6155 ft 281 kts 339°
2026-04-29 17:54 47.70235 7.16627 6103 ft 268 kts 339°
2026-04-29 17:55 47.71904 7.15401 6109 ft 263 kts 339°
2026-04-29 17:55 47.73525 7.14202 5638 ft 259 kts 339°
2026-04-29 17:55 47.75133 7.13000 5029 ft 260 kts 339°
2026-04-29 17:55 47.76825 7.12225 4508 ft 255 kts
2026-04-29 17:56 47.78402 7.13107 4476 ft 236 kts 44°
2026-04-29 17:56 47.79263 7.15082 4502 ft 228 kts 68°
2026-04-29 17:56 47.79606 7.17363 4498 ft 226 kts 84°
2026-04-29 17:56 47.79639 7.19669 4490 ft 221 kts 89°
2026-04-29 17:57 47.79584 7.21919 4472 ft 217 kts 90°
2026-04-29 17:57 47.79498 7.24144 4456 ft 210 kts 91°
2026-04-29 17:57 47.79402 7.26267 4143 ft 204 kts 91°
2026-04-29 17:57 47.79306 7.28407 4049 ft 215 kts 91°
2026-04-29 17:58 47.79200 7.30727 4046 ft 231 kts 91°
2026-04-29 17:58 47.79088 7.33143 4032 ft 241 kts 91°
2026-04-29 17:58 47.78966 7.35663 4027 ft 245 kts 91°
2026-04-29 17:58 47.78701 7.38036 3971 ft 225 kts 111°
2026-04-29 17:59 47.77633 7.39619 4005 ft 212 kts 143°
2026-04-29 17:59 47.76387 7.40617 4003 ft 192 kts 144°
2026-04-29 17:59 47.75272 7.41499 3979 ft 172 kts 143°
2026-04-29 17:59 47.74166 7.42168 3718 ft 171 kts 152°
2026-04-29 18:00 47.73070 7.42770 3422 ft 164 kts 149°
2026-04-29 18:00 47.72044 7.43410 3152 ft 158 kts 144°
2026-04-29 18:00 47.71129 7.44103 2822 ft 142 kts 141°
2026-04-29 18:00 47.70258 7.44865 2549 ft 154 kts 141°
2026-04-29 18:01 47.69275 7.45645 2355 ft 164 kts 148°
2026-04-29 18:01 47.68301 7.46315 2117 ft 147 kts 147°
2026-04-29 18:01 47.67390 7.47008 1877 ft 151 kts 144°
2026-04-29 18:01 47.66420 7.47687 1877 ft 157 kts 150°
2026-04-29 18:02 47.65438 7.48359 1816 ft 149 kts 149°
2026-04-29 18:02 47.64585 7.48977 1540 ft 130 kts 147°
2026-04-29 18:02 47.63745 7.49588 1346 ft 136 kts 153°
2026-04-29 18:02 47.62889 7.50171 1167 ft 138 kts 148°
2026-04-29 18:03 47.62032 7.50779 943 ft 134 kts 154°
2026-04-29 18:03 47.61208 7.51382 856 ft 124 kts 153°
2026-04-29 18:03 47.60682 7.51743 861 ft 29 kts 155°
2026-04-29 18:03 47.60604 7.51798 862 ft 10 kts 153°
2026-04-29 18:04 47.60543 7.51958 862 ft 25 kts 64°
2026-04-29 18:04 47.60523 7.52150 860 ft 20 kts 155°
2026-04-29 18:04 47.60401 7.52234 862 ft 18 kts 151°
2026-04-29 18:04 47.60290 7.52316 863 ft 17 kts 150°